Cody, WY

6:35 AM MDT on March 28, 2017 (GMT -0600)
Yellowstone Regional

Weather History for KCOD - October, 2010

Change the Weather History Date:

Wednesday, October 27, 2010

  Actual Average Record
Temperature  
Mean Temperature 40 °F -  
Max Temperature 44 °F 56 °F 75 °F (1983)
Min Temperature 35 °F 30 °F -4 °F (1919)
Degree Days  
Heating Degree Days 26    
Moisture  
Dew Point 14 °F    
Average Humidity 37    
Maximum Humidity 41    
Minimum Humidity 31    
Precipitation  
Precipitation 0.00 in - - ()
Sea Level Pressure  
Sea Level Pressure 30.07 in    
Wind  
Wind Speed 10 mph (West)    
Max Wind Speed 22 mph    
Max Gust Speed 32 mph    
Visibility 10 miles    
Events      
Averages and records for this station are not official NWS values.
T = Trace of Precipitation, MM = Missing Value Source: NWS Daily Summary

Daily Weather History Graph

Daily Weather History Graph

Search for Another Location

Airport or City:

Trip Planner

Search our weather history database for the weather conditions in past years. The results will help you decide how hot, cold, wet, or windy it might be!

Date:

Astronomy

Oct. 27, 2010 Rise Set
Actual Time 7:46 AM MDT 6:12 PM MDT
Civil Twilight 7:16 AM MDT 6:42 PM MDT
Nautical Twilight 6:42 AM MDT 7:16 PM MDT
Astronomical Twilight 6:09 AM MDT 7:50 PM MDT
Moon 9:30 PM MDT (10/27) 12:32 PM MDT (10/27)
Length of Visible Light 11h 25m
Length of Day
10h 25m
Waning Gibbous, 79% of the Moon is Illuminated
Oct 27
Waning Gibbous
Oct 30
Last Quarter
Nov 5
New
Nov 13
First Quarter
Nov 21
Full

Hourly Weather History & Observations

Time (MDT) Temp. Windchill Dew Point Humidity Pressure Visibility Wind Dir Wind Speed Gust Speed Precip Events Conditions
12:15 AM 37.4 °F 32.8 °F 12.2 °F 36% 29.78 in 10.0 mi West 5.8 mph - N/A   Overcast
12:35 AM 37.4 °F 33.8 °F 12.2 °F 36% 29.79 in 10.0 mi West 4.6 mph - N/A   Overcast
12:55 AM 37.4 °F 34.9 °F 12.2 °F 36% 29.79 in 10.0 mi West 3.5 mph - N/A   Overcast
1:15 AM 35.6 °F 30.7 °F 12.2 °F 38% 29.81 in 10.0 mi WNW 5.8 mph - N/A   Mostly Cloudy
1:35 AM 35.6 °F 29.2 °F 12.2 °F 38% 29.81 in 10.0 mi West 8.1 mph - N/A   Mostly Cloudy
1:55 AM 35.6 °F 30.7 °F 12.2 °F 38% 29.82 in 10.0 mi West 5.8 mph - N/A   Mostly Cloudy
2:15 AM 35.6 °F 29.2 °F 12.2 °F 38% 29.84 in 10.0 mi West 8.1 mph - N/A   Overcast
2:35 AM 35.6 °F 29.9 °F 12.2 °F 38% 29.84 in 10.0 mi West 6.9 mph - N/A   Mostly Cloudy
2:55 AM 35.6 °F 29.2 °F 12.2 °F 38% 29.85 in 10.0 mi West 8.1 mph - N/A   Partly Cloudy
3:15 AM 35.6 °F 31.7 °F 12.2 °F 38% 29.85 in 10.0 mi West 4.6 mph - N/A   Scattered Clouds
3:35 AM 35.6 °F 31.7 °F 14.0 °F 41% 29.86 in 10.0 mi West 4.6 mph - N/A   Overcast
3:55 AM 35.6 °F 31.7 °F 10.4 °F 35% 29.86 in 10.0 mi NW 4.6 mph - N/A   Overcast
4:15 AM 35.6 °F 32.8 °F 10.4 °F 35% 29.88 in 10.0 mi WNW 3.5 mph - N/A   Mostly Cloudy
4:35 AM 35.6 °F 28.6 °F 12.2 °F 38% 29.89 in 10.0 mi West 9.2 mph - N/A   Mostly Cloudy
4:55 AM 35.6 °F 28.6 °F 12.2 °F 38% 29.90 in 10.0 mi WNW 9.2 mph - N/A   Mostly Cloudy
5:15 AM 35.6 °F 27.5 °F 12.2 °F 38% 29.91 in 10.0 mi NW 11.5 mph 17.3 mph N/A   Mostly Cloudy
5:55 AM 37.4 °F 30.3 °F 12.2 °F 36% 29.93 in 10.0 mi WNW 10.4 mph 16.1 mph N/A   Overcast
6:15 AM 37.4 °F 30.8 °F 12.2 °F 36% 29.94 in 10.0 mi West 9.2 mph 17.3 mph N/A   Overcast
6:35 AM 37.4 °F 32.1 °F 14.0 °F 38% 29.96 in 10.0 mi West 6.9 mph - N/A   Overcast
6:55 AM 37.4 °F 31.4 °F 14.0 °F 38% 29.97 in 10.0 mi West 8.1 mph - N/A   Overcast
7:15 AM 37.4 °F 31.4 °F 14.0 °F 38% 29.98 in 10.0 mi West 8.1 mph - N/A   Overcast
7:35 AM 37.4 °F 30.3 °F 12.2 °F 36% 29.99 in 10.0 mi West 10.4 mph - N/A   Overcast
7:55 AM 37.4 °F 32.8 °F 14.0 °F 38% 30.00 in 10.0 mi West 5.8 mph - N/A   Overcast
8:15 AM 37.4 °F 32.1 °F 12.2 °F 36% 30.01 in 10.0 mi West 6.9 mph - N/A   Overcast
8:35 AM 37.4 °F 30.8 °F 14.0 °F 38% 30.03 in 10.0 mi WSW 9.2 mph - N/A   Overcast
8:55 AM 37.4 °F 31.4 °F 15.8 °F 41% 30.04 in 10.0 mi West 8.1 mph - N/A   Overcast
9:15 AM 37.4 °F 29.8 °F 15.8 °F 41% 30.06 in 10.0 mi West 11.5 mph 16.1 mph N/A   Overcast
9:35 AM 37.4 °F 32.1 °F 15.8 °F 41% 30.07 in 10.0 mi West 6.9 mph 18.4 mph N/A   Overcast
9:55 AM 39.2 °F 32.0 °F 15.8 °F 39% 30.08 in 10.0 mi West 11.5 mph 17.3 mph N/A   Overcast
10:15 AM 39.2 °F 30.8 °F 15.8 °F 39% 30.09 in 10.0 mi WSW 15.0 mph 20.7 mph N/A   Overcast
10:35 AM 39.2 °F 31.2 °F 15.8 °F 39% 30.10 in 10.0 mi West 13.8 mph 21.9 mph N/A   Overcast
10:55 AM 39.2 °F 31.2 °F 15.8 °F 39% 30.11 in 10.0 mi West 13.8 mph 24.2 mph N/A   Mostly Cloudy
11:15 AM 41.0 °F 32.8 °F 17.6 °F 39% 30.11 in 10.0 mi WSW 16.1 mph 26.5 mph N/A   Mostly Cloudy
11:35 AM 42.8 °F 35.1 °F 15.8 °F 34% 30.13 in 10.0 mi West 16.1 mph 26.5 mph N/A   Scattered Clouds
11:55 AM 42.8 °F 35.4 °F 17.6 °F 36% 30.14 in 10.0 mi West 15.0 mph 24.2 mph N/A   Partly Cloudy
12:15 PM 44.6 °F 37.8 °F 17.6 °F 34% 30.15 in 10.0 mi West 15.0 mph 23.0 mph N/A   Clear
12:35 PM 44.6 °F 37.8 °F 17.6 °F 34% 30.15 in 10.0 mi West 15.0 mph 19.6 mph N/A   Clear
12:55 PM 44.6 °F 37.8 °F 17.6 °F 34% 30.16 in 10.0 mi West 15.0 mph 20.7 mph N/A   Clear
1:15 PM 44.6 °F 38.1 °F 15.8 °F 31% 30.16 in 10.0 mi WSW 13.8 mph 26.5 mph N/A   Partly Cloudy
1:35 PM 44.6 °F 38.1 °F 17.6 °F 34% 30.17 in 10.0 mi WSW 13.8 mph 24.2 mph N/A   Partly Cloudy
1:55 PM 44.6 °F 38.1 °F 17.6 °F 34% 30.17 in 10.0 mi WSW 13.8 mph 26.5 mph N/A   Clear
2:15 PM 44.6 °F 38.1 °F 17.6 °F 34% 30.18 in 10.0 mi WSW 13.8 mph 20.7 mph N/A   Clear
2:55 PM 44.6 °F 36.9 °F 15.8 °F 31% 30.18 in 10.0 mi WSW 18.4 mph 26.5 mph N/A   Clear
3:15 PM 44.6 °F 37.4 °F 15.8 °F 31% 30.19 in 10.0 mi WSW 16.1 mph 26.5 mph N/A   Clear
3:35 PM 44.6 °F 36.6 °F 17.6 °F 34% 30.19 in 10.0 mi West 19.6 mph 31.1 mph N/A   Clear
3:55 PM 44.6 °F 36.9 °F 15.8 °F 31% 30.20 in 10.0 mi WSW 18.4 mph 28.8 mph N/A   Clear
4:35 PM 42.8 °F 34.8 °F 15.8 °F 34% 30.22 in 10.0 mi WSW 17.3 mph 28.8 mph N/A   Clear
4:55 PM 42.8 °F 35.1 °F 14.0 °F 31% 30.23 in 10.0 mi West 16.1 mph 28.8 mph N/A   Clear
5:15 PM 41.0 °F 32.5 °F 14.0 °F 33% 30.24 in 10.0 mi WSW 17.3 mph 27.6 mph N/A   Clear
5:35 PM 41.0 °F 32.2 °F 14.0 °F 33% 30.24 in 10.0 mi WSW 18.4 mph 27.6 mph N/A   Clear
5:55 PM 39.2 °F 29.0 °F 12.2 °F 33% 30.25 in 10.0 mi WSW 21.9 mph 31.1 mph N/A   Clear
6:15 PM 37.4 °F 28.2 °F 14.0 °F 38% 30.26 in 10.0 mi West 16.1 mph 29.9 mph N/A   Clear
6:35 PM 37.4 °F 28.5 °F 12.2 °F 36% 30.27 in 10.0 mi WSW 15.0 mph 31.1 mph N/A   Clear
6:55 PM 37.4 °F 27.2 °F 14.0 °F 38% 30.27 in 10.0 mi WSW 19.6 mph 32.2 mph N/A   Clear
7:15 PM 37.4 °F 29.3 °F 14.0 °F 38% 30.27 in 10.0 mi West 12.7 mph 28.8 mph N/A   Clear
7:35 PM 37.4 °F 28.9 °F 14.0 °F 38% 30.28 in 10.0 mi West 13.8 mph 25.3 mph N/A   Clear
7:55 PM 37.4 °F 28.2 °F 15.8 °F 41% 30.28 in 10.0 mi West 16.1 mph 24.2 mph N/A   Clear
8:15 PM 37.4 °F 27.8 °F 14.0 °F 38% 30.28 in 10.0 mi West 17.3 mph 28.8 mph N/A   Clear
8:35 PM 37.4 °F 29.8 °F 14.0 °F 38% 30.29 in 10.0 mi West 11.5 mph 25.3 mph N/A   Clear
8:55 PM 37.4 °F 31.4 °F 14.0 °F 38% 30.29 in 10.0 mi West 8.1 mph - N/A   Clear
9:15 PM 37.4 °F 27.5 °F 15.8 °F 41% 30.29 in 10.0 mi WSW 18.4 mph 26.5 mph N/A   Clear
9:35 PM 37.4 °F 28.5 °F 15.8 °F 41% 30.30 in 10.0 mi WSW 15.0 mph 26.5 mph N/A   Clear
9:55 PM 37.4 °F 28.9 °F 15.8 °F 41% 30.31 in 10.0 mi WSW 13.8 mph 21.9 mph N/A   Clear
10:15 PM 37.4 °F 29.3 °F 15.8 °F 41% 30.32 in 10.0 mi WSW 12.7 mph 24.2 mph N/A   Clear
10:35 PM 37.4 °F 28.5 °F 15.8 °F 41% 30.32 in 10.0 mi WSW 15.0 mph 25.3 mph N/A   Clear
10:55 PM 37.4 °F 27.8 °F 15.8 °F 41% 30.32 in 10.0 mi SW 17.3 mph 24.2 mph N/A   Clear
11:15 PM 37.4 °F 30.3 °F 15.8 °F 41% 30.32 in 10.0 mi WSW 10.4 mph 24.2 mph N/A   Clear
11:35 PM 37.4 °F 29.8 °F 15.8 °F 41% 30.32 in 10.0 mi West 11.5 mph 23.0 mph N/A   Clear
11:55 PM 37.4 °F 29.8 °F 15.8 °F 41% 30.32 in 10.0 mi WSW 11.5 mph - N/A   Clear